Location: Unspecified
(58.9933°N, 5.6375°E)
Time: 19:48:22
(UTC+02:00)

Cosmos 2058 - Pass Details

Date: 30 January 2018
Orbit: 564 x 584 km, 82.5° (Epoch: 19 May)

Event Time Altitude Azimuth Distance (km) Brightness Sun altitude
Rises 18:35:50 0° 190° (S) 2,799 6.7 -13.1°
Reaches altitude 10° 18:38:01 10° 190° (S) 1,905 5.9 -13.3°
Maximum altitude 18:42:14 87° 102° (ESE) 595 2.9 -13.9°
Drops below altitude 10° 18:46:29 10° 14° (NNE) 1,922 5.3 -14.4°
Sets 18:48:42 0° 14° (NNE) 2,826 6.2 -14.7°
